Dewpoint
-11 -10 -10 -10 -10 -10 -11 -11 -9 -6 -2 -1 -1 -0 2 1 -6 -7 -4 3 8 8 7 4 2 4 6 10 5 6 8 10 10
-11 -11 -10 -10 -9 -9 -10 -9 -8 -6 -6 -6 -6 -5 -3 -4 -5 -3 2 8 8 7 7 7 7 6 5 2 -4 0 4 7 10
-10 -9 -9 -8 -8 -8 -9 -9 -8 -7 -6 -5 -5 -4 -5 -5 1 7 7 8 9 9 8 9 7 6 9 7 -1 -5 4 4 7
-9 -9 -8 -8 -8 -8 -7 -7 -6 -5 -4 -3 -4 -5 -1 3 6 7 7 8 9 6 5 9 8 8 8 8 9 6 7 8 2
-9 -8 -8 -8 -8 -8 -8 -7 -5 -4 -3 -1 2 2 4 8 7 9 9 9 10 8 6 3 4 7 9 8 9 9 8 3 0
-9 -8 -8 -8 -8 -8 -8 -6 -5 -4 -1 4 6 5 6 6 9 9 10 10 8 5 6 5 8 8 6 8 8 8 3 7 8
-8 -8 -8 -8 -7 -8 -7 -5 -3 -1 1 6 7 5 5 5 5 7 6 6 7 5 7 8 8 7 4 6 4 6 8 8 8
-8 -8 -9 -9 -9 -8 -5 -3 -2 0 3 6 5 5 6 8 8 10 10 9 6 6 8 9 8 4 8 8 9 8 8 8 7
-8 -9 -8 -8 -8 -7 -5 -3 -2 -1 1 4 4 5 6 5 7 9 9 10 8 6 5 3 3 8 9 7 7 6 6 4 2
-9 -9 -8 -6 -6 -5 -4 -3 -2 -1 -0 -1 2 3 2 2 4 8 9 10 10 9 8 9 9 9 7 6 6 5 6 6 4
-9 -10 -8 -6 -4 -4 -3 -2 -2 -1 -1 -4 -1 -2 -2 -3 -3 7 8 10 10 9 9 9 8 8 6 7 7 7 7 6 5
-9 -9 -9 -7 -4 -3 -2 -1 -1 -0 -1 -6 -5 -4 -5 -5 -8 -6 7 9 10 10 9 9 8 7 7 7 7 6 6 6 6
-7 -8 -8 -8 -4 -2 -1 -1 -0 -1 -2 -5 -6 -7 -9 -7 -7 -8 -6 8 9 9 8 7 7 7 6 6 6 6 6 6 6
-5 -7 -8 -7 -6 -2 -2 -1 -1 -1 -2 -4 -4 -5 -4 -4 -5 -6 -6 -1 5 8 7 5 6 6 6 6 6 6 6 5 5
-4 -5 -6 -7 -6 -4 -2 -1 0 -3 -4 -3 -4 -4 -5 -6 -6 -6 -7 -7 -1 6 5 4 4 6 6 6 6 5 5 5 5
-4 -5 -6 -7 -6 -5 -2 -0 -1 -1 -2 -3 -2 -3 -3 -4 -6 -6 -6 -5 -6 -5 -1 3 2 -1 -1 -0 5 5 5 4 4
-2 -4 -5 -7 -6 -5 -2 -1 -1 0 -1 -2 -2 -0 -1 -1 -4 -6 -6 -6 -4 -4 -5 -3 -3 -4 -6 -7 -6 -5 -5 -2 -0
-2 -2 -4 -5 -6 -6 -3 -1 -1 -1 0 -1 -3 -0 -0 0 -0 -5 -6 -6 -6 -4 -3 -5 -6 -7 -7 -6 -6 -5 -4 -4 -4
-1 -1 -3 -3 -6 -6 -5 -2 -0 -2 -1 -1 -3 -4 -5 0 0 -2 -4 -5 -5 -4 -2 -2 -4 -5 -5 -4 -4 -3 -3 -4 -8
-2 -2 -2 -2 -3 -6 -6 -5 -2 -1 -2 -2 -2 -3 -3 -4 -2 -1 -3 -3 -4 -3 -1 -2 -3 -3 -3 -3 -2 -2 -3 -4 -8
Wind_Speed
16 16 16 15 15 15 15 15 15 15 14 12 10 9 8 6 7 9 11 12 11 11 11 10 9 10 12 13 7 6 8 13 15
17 16 16 15 15 15 15 15 14 14 13 11 10 8 7 7 10 11 12 13 13 12 14 13 14 12 11 8 7 6 7 7 9
18 17 16 15 15 16 16 14 13 13 13 12 10 10 10 12 15 16 13 15 15 14 11 14 12 13 15 13 10 9 11 10 11
18 17 17 16 16 16 16 15 14 13 12 13 14 16 17 16 18 16 16 15 15 13 16 14 13 14 13 20 17 17 15 14 10
17 17 17 17 17 17 16 15 14 14 13 14 16 15 16 17 18 16 18 18 16 13 13 12 13 15 18 14 19 17 12 13 19
16 16 17 17 17 17 16 15 15 15 16 17 15 16 16 17 19 20 17 14 11 11 15 16 16 17 15 20 16 13 18 20 19
15 16 17 17 18 16 17 16 15 14 16 18 16 13 12 17 16 20 17 13 13 14 18 19 19 17 18 22 23 22 18 15 13
17 17 17 18 18 18 17 17 15 14 15 17 14 15 19 20 19 18 14 14 13 15 16 18 16 16 19 19 20 18 15 12 10
17 17 18 18 17 17 16 16 16 15 14 14 13 15 15 12 20 18 18 15 15 14 14 13 17 19 19 16 13 10 12 9 8
18 19 19 18 17 16 17 17 16 15 14 14 13 14 12 11 18 19 16 17 14 14 18 19 20 16 11 9 9 11 12 14 12
18 19 19 18 17 17 16 16 16 16 14 14 14 13 12 12 13 18 19 18 21 16 18 17 11 8 4 12 14 15 16 16 16
18 18 19 19 19 18 18 18 17 16 15 15 15 13 12 11 12 13 18 18 18 19 13 9 8 8 13 15 15 15 17 17 16
19 18 19 20 20 19 20 19 18 17 16 17 16 14 13 12 12 13 14 17 16 16 16 10 11 13 13 13 15 15 15 14 14
19 19 19 20 21 20 20 19 18 20 19 18 17 15 13 12 11 12 13 15 15 14 12 7 11 11 13 14 13 13 14 13 12
21 20 20 21 21 22 20 19 20 19 21 21 19 16 14 12 11 11 11 12 13 12 9 8 12 14 13 13 13 12 11 11 10
23 21 22 22 23 23 23 22 22 23 22 24 21 18 14 12 11 11 11 11 11 12 12 11 7 4 7 9 12 10 8 8 7
24 22 23 23 25 25 26 26 27 26 25 24 22 14 14 13 11 12 12 11 11 11 12 12 10 8 6 4 3 2 3 4 5
25 23 23 24 27 27 29 29 28 29 29 24 12 8 8 19 14 12 12 12 12 12 11 11 10 8 6 4 1 1 3 4 7
25 24 22 24 26 27 28 28 29 27 29 29 22 10 8 12 13 16 14 13 13 12 12 10 9 8 6 4 3 3 4 5 8
26 26 24 26 26 27 27 29 31 29 28 29 29 17 11 14 12 20 22 18 15 14 13 12 11 10 8 6 5 5 6 8 10
Wind_Direction
145 143 142 143 143 142 141 139 137 133 129 126 122 119 118 104 98 106 102 90 87 87 83 81 83 82 90 74 108 113 99 87 72
146 144 143 143 144 141 141 138 137 133 131 127 124 122 121 116 117 112 104 103 95 90 84 79 82 79 78 85 91 118 121 126 114
147 144 144 146 145 142 142 143 137 133 132 131 129 127 125 122 113 102 105 96 95 93 92 74 73 93 80 72 71 92 82 93 89
149 149 149 150 148 147 150 146 141 133 126 121 118 118 122 123 103 96 95 98 95 76 91 93 91 82 84 88 81 64 77 80 74
154 153 153 153 150 153 153 146 140 131 124 120 118 124 122 108 106 99 91 98 101 84 81 93 89 87 93 94 96 96 84 63 74
157 157 156 154 153 159 151 149 141 135 128 122 116 109 113 115 114 100 110 108 106 86 83 98 96 89 93 89 100 99 88 82 81
161 161 160 157 159 160 149 148 138 132 129 127 124 121 118 112 117 101 99 104 105 85 89 100 93 91 85 84 87 87 89 98 107
169 169 167 166 164 157 151 144 138 135 134 134 133 124 124 115 114 101 98 100 81 91 105 106 100 98 96 96 100 107 105 98 87
171 169 165 164 159 157 151 150 144 141 141 143 142 136 135 131 129 125 113 118 98 94 108 117 114 109 112 114 115 105 91 85 64
173 171 169 167 165 165 158 157 151 146 144 151 156 150 145 141 132 136 118 116 121 102 105 111 117 121 119 122 104 85 81 80 78
176 173 173 174 174 170 167 163 158 151 148 151 158 157 152 143 135 151 135 117 117 116 118 117 117 106 114 96 91 87 85 81 80
183 182 180 178 176 175 171 168 163 159 153 153 156 160 158 156 149 142 151 133 127 125 128 136 122 101 99 97 96 95 91 84 76
188 186 186 181 179 178 174 174 168 165 158 154 154 153 151 149 151 150 153 160 143 134 140 140 108 102 104 103 96 89 84 83 80
191 191 190 187 183 181 182 180 183 169 165 160 157 154 155 151 151 152 157 170 177 168 161 137 117 112 100 98 95 94 90 87 74
194 195 196 193 189 188 189 188 183 181 171 163 159 155 156 155 154 152 155 160 173 190 189 184 157 128 117 103 90 84 81 75 69
200 198 201 200 200 196 193 189 184 180 177 167 159 154 155 156 160 159 163 165 166 170 170 181 187 164 153 138 110 90 76 68 59
206 205 206 206 204 201 201 198 188 190 185 178 167 154 163 170 170 171 172 175 173 173 178 183 187 183 184 170 143 114 41 29 15
213 213 213 214 210 209 207 205 206 196 192 193 181 168 184 178 181 182 182 183 184 182 184 184 187 190 190 202 214 354 12 17 4
219 220 220 222 220 216 214 214 215 214 204 199 205 204 197 175 179 193 193 193 191 191 191 193 195 203 209 225 257 289 324 339 348
221 222 223 225 226 222 222 221 221 223 224 219 213 215 217 200 187 190 194 195 196 196 199 205 210 213 225 235 257 282 307 324 334
Height
1532 1533 1535 1536 1537 1539 1541 1542 1544 1546 1548 1550 1551 1552 1553 1554 1554 1554 1555 1555 1556 1556 1556 1556 1557 1557 1558 1559 1559 1560 1560 1561 1562
1533 1535 1536 1538 1539 1541 1542 1544 1546 1548 1549 1550 1552 1553 1554 1555 1556 1556 1556 1557 1558 1558 1559 1559 1559 1559 1559 1559 1560 1560 1561 1562 1563
1534 1536 1537 1539 1541 1542 1544 1545 1547 1549 1551 1552 1553 1554 1555 1556 1557 1558 1558 1559 1560 1561 1560 1561 1561 1560 1562 1562 1561 1562 1562 1563 1564
1534 1537 1539 1541 1543 1544 1545 1547 1549 1550 1552 1553 1554 1555 1557 1557 1559 1561 1561 1561 1563 1563 1562 1563 1563 1563 1563 1565 1566 1565 1565 1565 1565
1536 1538 1540 1541 1543 1545 1547 1549 1550 1552 1553 1555 1556 1556 1557 1560 1562 1564 1564 1565 1565 1565 1564 1563 1564 1564 1566 1566 1567 1568 1568 1568 1568
1537 1539 1541 1542 1544 1545 1548 1551 1551 1553 1554 1556 1558 1558 1560 1562 1564 1566 1567 1568 1568 1568 1567 1566 1566 1567 1567 1567 1569 1570 1571 1572 1572
1538 1540 1542 1543 1545 1546 1549 1551 1553 1555 1556 1557 1560 1561 1562 1564 1566 1568 1570 1570 1570 1570 1569 1569 1569 1570 1571 1571 1571 1572 1574 1574 1573
1538 1540 1543 1544 1545 1547 1550 1552 1554 1557 1558 1559 1562 1563 1564 1565 1568 1570 1571 1572 1572 1572 1572 1572 1573 1574 1573 1574 1575 1574 1574 1574 1574
1538 1541 1543 1545 1546 1548 1551 1553 1555 1558 1560 1561 1564 1566 1566 1566 1567 1571 1572 1573 1575 1574 1574 1575 1576 1576 1576 1576 1577 1577 1576 1574 1575
1538 1540 1543 1546 1547 1550 1552 1554 1556 1557 1561 1563 1565 1567 1568 1569 1569 1572 1574 1574 1576 1577 1577 1577 1578 1578 1579 1579 1579 1579 1579 1577 1576
1538 1540 1543 1546 1549 1551 1553 1555 1557 1559 1561 1564 1566 1568 1569 1570 1572 1573 1575 1577 1577 1580 1580 1580 1581 1580 1580 1580 1581 1581 1581 1581 1580
1537 1540 1543 1545 1548 1551 1554 1556 1558 1559 1561 1564 1567 1569 1571 1572 1572 1575 1576 1579 1579 1580 1582 1583 1583 1582 1581 1582 1583 1583 1583 1584 1585
1536 1538 1542 1544 1548 1551 1554 1556 1557 1560 1562 1564 1567 1569 1572 1572 1574 1575 1577 1579 1581 1582 1582 1584 1584 1585 1585 1584 1584 1584 1585 1586 1586
1535 1538 1540 1543 1545 1550 1553 1556 1559 1558 1561 1563 1567 1569 1572 1573 1575 1575 1577 1579 1581 1582 1584 1585 1587 1587 1587 1587 1587 1586 1586 1586 1586
1533 1537 1539 1543 1544 1547 1552 1555 1558 1559 1560 1562 1567 1568 1571 1572 1575 1576 1578 1579 1581 1583 1584 1586 1585 1586 1588 1589 1589 1588 1587 1587 1587
1531 1533 1538 1541 1544 1546 1550 1554 1556 1560 1561 1561 1567 1568 1571 1572 1574 1575 1578 1580 1581 1582 1584 1585 1586 1587 1587 1587 1588 1588 1588 1588 1586
1529 1531 1535 1539 1543 1545 1549 1550 1552 1558 1560 1561 1566 1569 1571 1572 1573 1575 1577 1579 1580 1582 1583 1584 1585 1586 1587 1587 1586 1586 1586 1586 1585
1526 1529 1533 1538 1540 1543 1546 1548 1551 1554 1557 1561 1563 1566 1566 1569 1572 1575 1576 1577 1579 1580 1582 1583 1584 1585 1585 1587 1586 1585 1585 1584 1584
1523 1528 1531 1537 1539 1541 1545 1549 1551 1554 1556 1559 1561 1561 1564 1565 1571 1573 1575 1578 1577 1579 1581 1582 1582 1583 1584 1585 1585 1585 1584 1583 1581
1519 1523 1528 1533 1537 1540 1543 1546 1548 1552 1555 1556 1559 1559 1562 1562 1563 1566 1570 1574 1576 1578 1579 1580 1580 1580 1581 1581 1583 1582 1582 1582 1580